User: anonymous
Location: Fremont
(37.5480°N, 121.9880°W)
Time: 23:23:31
(UTC-07:00)
Language:

Cosmos 1766 - Orbit

View from above orbital plane
View from above orbital plane
View from above satellite
View from above satellite

Ground track
Ground track

The orbit data is extracted from the following two-line orbital elements,

1 16881U 86055A   14274.77497278  .00004426  00000-0  30125-3 0  9818
2 16881 082.5072 269.4930 0011585 203.7770 156.2924 15.06028798532240
Epoch (UTC): 01 October 2014 18:35:57
Eccentricity: 0.0011585
inclination: 82.5072°
perigee height: 540 km
apogee height: 556 km
right ascension of ascending node: 269.4930°
argument of perigee: 203.7770°
revolutions per day: 15.06028798
mean anomaly at epoch: 156.2924°
orbit number at epoch: 53224

The dashed part of the orbit path shows where the satellite is in the earth's shadow,  

DLR